Time,TemperatureF,DewpointF,PressureIn,WindDirection,WindDirectionDegrees,WindSpeedMPH,WindSpeedGustMPH,Humidity,HourlyPrecipIn,Conditions,Clouds,dailyrainin,SoftwareType,DateUTC
2013-07-31 00:02:00,69.1,63.0,30.31,South,180,0.0,0.0,81,0.00,,,0.00,meteohub,2013-07-31 04:02:00,
2013-07-31 00:12:00,68.0,61.9,30.31,South,180,0.0,0.0,81,0.00,,,0.00,meteohub,2013-07-31 04:12:00,
2013-07-31 00:22:00,68.0,62.2,30.31,South,180,0.0,0.0,82,0.00,,,0.00,meteohub,2013-07-31 04:22:00,
2013-07-31 00:32:00,68.0,62.6,30.31,South,180,0.0,0.0,83,0.00,,,0.00,meteohub,2013-07-31 04:32:00,
2013-07-31 00:42:00,68.0,62.6,30.31,South,180,0.0,0.0,83,0.00,,,0.00,meteohub,2013-07-31 04:42:00,
2013-07-31 00:52:00,68.0,62.6,30.31,South,180,0.0,0.0,83,0.00,,,0.00,meteohub,2013-07-31 04:52:00,
2013-07-31 01:02:00,68.0,62.6,30.31,South,180,0.0,0.0,83,0.00,,,0.00,meteohub,2013-07-31 05:02:00,
2013-07-31 01:12:00,68.0,63.3,30.31,South,180,0.0,0.0,85,0.00,,,0.00,meteohub,2013-07-31 05:12:00,
2013-07-31 01:22:00,68.0,63.3,30.31,South,180,0.0,0.0,85,0.00,,,0.00,meteohub,2013-07-31 05:22:00,
2013-07-31 01:32:00,68.0,63.0,30.31,South,180,0.0,0.0,84,0.00,,,0.00,meteohub,2013-07-31 05:32:00,
2013-07-31 01:42:00,68.0,63.7,30.31,South,180,0.0,0.0,86,0.00,,,0.00,meteohub,2013-07-31 05:42:00,
2013-07-31 01:52:00,69.1,64.0,30.31,South,180,0.0,2.0,84,0.00,,,0.00,meteohub,2013-07-31 05:52:00,
2013-07-31 02:02:00,69.1,64.0,30.31,South,180,0.0,2.0,84,0.00,,,0.00,meteohub,2013-07-31 06:02:00,
2013-07-31 02:12:00,69.1,64.4,30.31,South,180,0.0,1.0,85,0.00,,,0.00,meteohub,2013-07-31 06:12:00,
2013-07-31 02:22:00,69.1,64.4,30.31,South,180,0.0,1.0,85,0.00,,,0.00,meteohub,2013-07-31 06:22:00,
2013-07-31 02:32:00,69.1,64.8,30.31,South,180,0.0,0.0,86,0.00,,,0.00,meteohub,2013-07-31 06:32:00,
2013-07-31 02:42:00,68.0,64.0,30.30,South,180,0.0,0.0,87,0.00,,,0.00,meteohub,2013-07-31 06:42:00,
2013-07-31 02:52:00,68.0,64.4,30.30,South,180,0.0,0.0,88,0.00,,,0.00,meteohub,2013-07-31 06:52:00,
2013-07-31 03:02:00,68.0,64.6,30.30,South,180,0.0,0.0,89,0.00,,,0.00,meteohub,2013-07-31 07:02:00,
2013-07-31 03:12:00,68.0,64.6,30.30,South,180,0.0,0.0,89,0.00,,,0.00,meteohub,2013-07-31 07:12:00,
2013-07-31 03:22:00,66.9,64.2,30.30,South,180,0.0,0.0,91,0.00,,,0.00,meteohub,2013-07-31 07:22:00,
2013-07-31 03:32:00,66.9,64.2,30.30,South,180,0.0,0.0,91,0.00,,,0.00,meteohub,2013-07-31 07:32:00,
2013-07-31 03:42:00,66.9,64.6,30.30,South,180,0.0,0.0,92,0.00,,,0.00,meteohub,2013-07-31 07:42:00,
2013-07-31 03:52:00,66.9,64.6,30.30,South,180,0.0,0.0,92,0.00,,,0.00,meteohub,2013-07-31 07:52:00,
2013-07-31 04:02:00,66.9,64.8,30.29,South,180,0.0,0.0,93,0.00,,,0.00,meteohub,2013-07-31 08:02:00,
2013-07-31 04:12:00,66.9,65.1,30.30,South,180,0.0,0.0,94,0.00,,,0.00,meteohub,2013-07-31 08:12:00,
2013-07-31 04:22:00,66.0,64.2,30.29,South,180,0.0,0.0,94,0.00,,,0.00,meteohub,2013-07-31 08:22:00,
2013-07-31 04:32:00,66.0,64.6,30.29,South,180,0.0,0.0,95,0.00,,,0.00,meteohub,2013-07-31 08:32:00,
2013-07-31 04:42:00,66.0,64.8,30.29,South,180,0.0,0.0,96,0.00,,,0.00,meteohub,2013-07-31 08:42:00,
2013-07-31 04:52:00,66.0,64.8,30.29,South,180,0.0,0.0,96,0.00,,,0.00,meteohub,2013-07-31 08:52:00,
2013-07-31 05:02:00,66.0,64.8,30.29,South,180,0.0,0.0,96,0.00,,,0.00,meteohub,2013-07-31 09:02:00,
2013-07-31 05:12:00,66.0,64.6,30.30,South,180,0.0,0.0,95,0.00,,,0.00,meteohub,2013-07-31 09:12:00,
2013-07-31 05:22:00,66.0,64.6,30.29,South,180,0.0,0.0,95,0.00,,,0.00,meteohub,2013-07-31 09:22:00,
2013-07-31 05:32:00,66.0,64.2,30.30,South,180,0.0,0.0,94,0.00,,,0.00,meteohub,2013-07-31 09:32:00,
2013-07-31 05:42:00,66.0,64.2,30.30,South,180,0.0,0.0,94,0.00,,,0.00,meteohub,2013-07-31 09:42:00,
2013-07-31 05:52:00,66.9,64.8,30.30,South,180,0.0,0.0,93,0.00,,,0.00,meteohub,2013-07-31 09:52:00,
2013-07-31 06:02:00,66.9,64.8,30.30,South,180,0.0,0.0,93,0.00,,,0.00,meteohub,2013-07-31 10:02:00,
2013-07-31 06:12:00,66.0,63.9,30.30,South,180,0.0,0.0,93,0.00,,,0.00,meteohub,2013-07-31 10:12:00,
2013-07-31 06:22:00,66.9,64.8,30.30,South,180,0.0,0.0,93,0.00,,,0.00,meteohub,2013-07-31 10:22:00,
2013-07-31 06:32:00,66.0,63.9,30.30,South,180,0.0,0.0,93,0.00,,,0.00,meteohub,2013-07-31 10:32:00,
2013-07-31 06:42:00,66.9,65.1,30.30,South,180,0.0,0.0,94,0.00,,,0.00,meteohub,2013-07-31 10:42:00,
2013-07-31 06:52:00,66.9,64.8,30.30,South,180,0.0,0.0,93,0.00,,,0.00,meteohub,2013-07-31 10:52:00,
2013-07-31 07:02:00,66.9,65.1,30.30,South,180,0.0,0.0,94,0.00,,,0.00,meteohub,2013-07-31 11:02:00,
2013-07-31 07:12:00,66.9,65.1,30.30,South,180,0.0,0.0,94,0.00,,,0.00,meteohub,2013-07-31 11:12:00,
2013-07-31 07:22:00,66.9,65.1,30.30,South,180,0.0,0.0,94,0.00,,,0.00,meteohub,2013-07-31 11:22:00,
2013-07-31 07:32:00,66.9,64.8,30.30,South,180,0.0,0.0,93,0.00,,,0.00,meteohub,2013-07-31 11:32:00,
2013-07-31 07:42:00,68.0,65.7,30.30,South,180,0.0,0.0,92,0.00,,,0.00,meteohub,2013-07-31 11:42:00,
2013-07-31 07:52:00,69.1,65.3,30.31,South,180,0.0,1.0,88,0.00,,,0.00,meteohub,2013-07-31 11:52:00,
2013-07-31 08:02:00,70.0,65.3,30.31,South,180,1.0,2.0,85,0.00,,,0.00,meteohub,2013-07-31 12:02:00,
2013-07-31 08:12:00,70.0,64.9,30.32,South,180,0.0,2.0,84,0.00,,,0.00,meteohub,2013-07-31 12:12:00,
2013-07-31 08:22:00,71.1,65.7,30.32,South,180,0.0,1.0,83,0.00,,,0.00,meteohub,2013-07-31 12:22:00,
2013-07-31 08:32:00,72.0,65.5,30.32,South,180,0.0,1.0,80,0.00,,,0.00,meteohub,2013-07-31 12:32:00,
2013-07-31 08:42:00,72.0,64.8,30.32,South,180,0.0,2.0,78,0.00,,,0.00,meteohub,2013-07-31 12:42:00,
2013-07-31 08:52:00,73.0,65.8,30.32,South,180,0.0,2.0,78,0.00,,,0.00,meteohub,2013-07-31 12:52:00,
2013-07-31 09:02:00,73.0,64.9,30.33,SE,135,0.0,2.0,76,0.00,,,0.00,meteohub,2013-07-31 13:02:00,
2013-07-31 09:12:00,73.9,65.5,30.33,SE,135,0.0,2.0,75,0.00,,,0.00,meteohub,2013-07-31 13:12:00,
2013-07-31 09:22:00,73.9,65.1,30.33,SE,135,2.0,2.0,74,0.00,,,0.00,meteohub,2013-07-31 13:22:00,
2013-07-31 09:32:00,73.9,64.8,30.33,SE,135,0.0,2.0,73,0.00,,,0.00,meteohub,2013-07-31 13:32:00,
2013-07-31 09:42:00,73.9,65.1,30.33,SE,135,0.0,2.0,74,0.00,,,0.00,meteohub,2013-07-31 13:42:00,
2013-07-31 09:52:00,75.0,65.8,30.33,SE,135,0.0,2.0,73,0.00,,,0.00,meteohub,2013-07-31 13:52:00,
2013-07-31 10:02:00,75.0,65.3,30.33,SSW,202,1.0,2.0,72,0.00,,,0.00,meteohub,2013-07-31 14:02:00,
2013-07-31 10:12:00,75.9,65.5,30.33,SSW,202,0.0,2.0,70,0.00,,,0.00,meteohub,2013-07-31 14:12:00,
2013-07-31 10:22:00,75.9,65.5,30.33,SE,135,0.0,2.0,70,0.00,,,0.00,meteohub,2013-07-31 14:22:00,
2013-07-31 10:32:00,78.1,66.7,30.33,SE,135,0.0,2.0,68,0.00,,,0.00,meteohub,2013-07-31 14:32:00,
2013-07-31 10:42:00,78.1,65.3,30.34,SE,135,0.0,2.0,65,0.00,,,0.00,meteohub,2013-07-31 14:42:00,
2013-07-31 10:52:00,78.1,64.9,30.34,SE,135,0.0,2.0,64,0.00,,,0.00,meteohub,2013-07-31 14:52:00,
2013-07-31 11:02:00,79.0,66.2,30.33,SE,135,0.0,2.0,65,0.00,,,0.00,meteohub,2013-07-31 15:02:00,
2013-07-31 11:12:00,79.0,64.4,30.33,SE,135,1.0,2.0,61,0.00,,,0.00,meteohub,2013-07-31 15:12:00,
2013-07-31 11:22:00,80.1,64.4,30.33,SW,225,0.0,2.0,59,0.00,,,0.00,meteohub,2013-07-31 15:22:00,
2013-07-31 11:32:00,80.1,64.4,30.33,SW,225,0.0,2.0,59,0.00,,,0.00,meteohub,2013-07-31 15:32:00,
2013-07-31 11:42:00,79.0,63.0,30.33,South,180,2.0,2.0,58,0.00,,,0.00,meteohub,2013-07-31 15:42:00,
2013-07-31 11:52:00,79.0,63.0,30.32,SE,135,0.0,2.0,58,0.00,,,0.00,meteohub,2013-07-31 15:52:00,
2013-07-31 12:02:00,79.0,63.5,30.32,SE,135,0.0,1.0,59,0.00,,,0.00,meteohub,2013-07-31 16:02:00,
2013-07-31 12:12:00,79.0,63.5,30.32,SE,135,0.0,2.0,59,0.00,,,0.00,meteohub,2013-07-31 16:12:00,
2013-07-31 12:22:00,79.0,63.9,30.32,SE,135,0.0,1.0,60,0.00,,,0.00,meteohub,2013-07-31 16:22:00,
2013-07-31 12:32:00,79.0,63.9,30.32,SE,135,0.0,0.0,60,0.00,,,0.00,meteohub,2013-07-31 16:32:00,
2013-07-31 12:42:00,78.1,62.6,30.32,SE,135,0.0,2.0,59,0.00,,,0.00,meteohub,2013-07-31 16:42:00,
2013-07-31 12:52:00,79.0,63.9,30.32,SE,135,1.0,2.0,60,0.00,,,0.00,meteohub,2013-07-31 16:52:00,
2013-07-31 13:02:00,79.0,63.9,30.31,SE,135,0.0,2.0,60,0.00,,,0.00,meteohub,2013-07-31 17:02:00,
2013-07-31 13:12:00,79.0,64.4,30.31,South,180,0.0,2.0,61,0.00,,,0.00,meteohub,2013-07-31 17:12:00,
2013-07-31 13:22:00,78.1,64.0,30.31,South,180,0.0,2.0,62,0.00,,,0.00,meteohub,2013-07-31 17:22:00,
2013-07-31 13:32:00,78.1,65.3,30.30,SSW,202,2.0,2.0,65,0.00,,,0.00,meteohub,2013-07-31 17:32:00,
2013-07-31 13:42:00,78.1,65.8,30.30,SSW,202,1.0,2.0,66,0.00,,,0.00,meteohub,2013-07-31 17:42:00,
2013-07-31 13:52:00,78.1,65.8,30.30,NW,315,0.0,2.0,66,0.00,,,0.00,meteohub,2013-07-31 17:52:00,
2013-07-31 14:02:00,78.1,65.3,30.30,SW,225,1.0,3.0,65,0.00,,,0.00,meteohub,2013-07-31 18:02:00,
2013-07-31 14:12:00,78.1,65.8,30.30,SSE,157,1.0,3.0,66,0.00,,,0.00,meteohub,2013-07-31 18:12:00,
2013-07-31 14:22:00,79.0,65.8,30.29,South,180,0.0,4.0,64,0.00,,,0.00,meteohub,2013-07-31 18:22:00,
2013-07-31 14:32:00,79.0,65.8,30.29,South,180,1.0,2.0,64,0.00,,,0.00,meteohub,2013-07-31 18:32:00,
2013-07-31 14:42:00,79.0,64.4,30.29,South,180,0.0,2.0,61,0.00,,,0.00,meteohub,2013-07-31 18:42:00,
2013-07-31 14:52:00,80.1,64.9,30.30,South,180,0.0,2.0,60,0.00,,,0.00,meteohub,2013-07-31 18:52:00,
2013-07-31 15:02:00,80.1,63.0,30.29,SW,225,1.0,2.0,56,0.00,,,0.00,meteohub,2013-07-31 19:02:00,
2013-07-31 15:12:00,79.0,63.9,30.29,SW,225,1.0,2.0,60,0.00,,,0.00,meteohub,2013-07-31 19:12:00,
2013-07-31 15:22:00,79.0,64.8,30.29,SSW,202,0.0,2.0,62,0.00,,,0.00,meteohub,2013-07-31 19:22:00,
2013-07-31 15:32:00,79.0,63.9,30.29,SE,135,0.0,2.0,60,0.00,,,0.00,meteohub,2013-07-31 19:32:00,
2013-07-31 15:42:00,78.1,63.5,30.28,SW,225,0.0,2.0,61,0.00,,,0.00,meteohub,2013-07-31 19:42:00,
2013-07-31 15:52:00,79.0,64.8,30.28,SW,225,0.0,2.0,62,0.00,,,0.00,meteohub,2013-07-31 19:52:00,
2013-07-31 16:02:00,79.0,64.8,30.28,SW,225,1.0,2.0,62,0.00,,,0.00,meteohub,2013-07-31 20:02:00,
2013-07-31 16:12:00,79.0,65.3,30.27,SE,135,0.0,2.0,63,0.00,,,0.00,meteohub,2013-07-31 20:12:00,
2013-07-31 16:22:00,79.0,65.3,30.27,SE,135,0.0,2.0,63,0.00,,,0.00,meteohub,2013-07-31 20:22:00,
2013-07-31 16:32:00,78.1,64.9,30.27,South,180,1.0,2.0,64,0.00,,,0.00,meteohub,2013-07-31 20:32:00,
2013-07-31 16:42:00,78.1,65.8,30.26,South,180,1.0,2.0,66,0.00,,,0.00,meteohub,2013-07-31 20:42:00,
2013-07-31 16:52:00,78.1,66.2,30.26,South,180,1.0,2.0,67,0.00,,,0.00,meteohub,2013-07-31 20:52:00,
2013-07-31 17:02:00,78.1,66.7,30.26,South,180,0.0,2.0,68,0.00,,,0.00,meteohub,2013-07-31 21:02:00,
2013-07-31 17:12:00,79.0,67.1,30.26,SE,135,1.0,2.0,67,0.00,,,0.00,meteohub,2013-07-31 21:12:00,
2013-07-31 17:22:00,80.1,66.4,30.26,SE,135,1.0,2.0,63,0.00,,,0.00,meteohub,2013-07-31 21:22:00,
2013-07-31 17:32:00,82.0,66.4,30.26,SE,135,2.0,2.0,59,0.00,,,0.00,meteohub,2013-07-31 21:32:00,
2013-07-31 17:42:00,82.0,66.7,30.26,SE,135,0.0,2.0,60,0.00,,,0.00,meteohub,2013-07-31 21:42:00,
2013-07-31 17:52:00,81.0,66.7,30.26,SE,135,2.0,2.0,62,0.00,,,0.00,meteohub,2013-07-31 21:52:00,
2013-07-31 18:02:00,81.0,66.2,30.25,SE,135,1.0,2.0,61,0.00,,,0.00,meteohub,2013-07-31 22:02:00,
2013-07-31 18:12:00,80.1,66.4,30.25,SE,135,0.0,2.0,63,0.00,,,0.00,meteohub,2013-07-31 22:12:00,
2013-07-31 18:22:00,80.1,66.7,30.24,SE,135,0.0,2.0,64,0.00,,,0.00,meteohub,2013-07-31 22:22:00,
2013-07-31 18:32:00,79.0,66.6,30.24,SE,135,1.0,2.0,66,0.00,,,0.00,meteohub,2013-07-31 22:32:00,
2013-07-31 18:42:00,79.0,66.6,30.24,SE,135,0.0,2.0,66,0.00,,,0.00,meteohub,2013-07-31 22:42:00,
2013-07-31 18:52:00,79.0,67.5,30.23,SE,135,0.0,2.0,68,0.00,,,0.00,meteohub,2013-07-31 22:52:00,
2013-07-31 19:02:00,78.1,67.1,30.23,SE,135,0.0,3.0,69,0.00,,,0.00,meteohub,2013-07-31 23:02:00,
2013-07-31 19:12:00,78.1,67.5,30.23,SE,135,0.0,3.0,70,0.00,,,0.00,meteohub,2013-07-31 23:12:00,
2013-07-31 19:22:00,77.0,66.4,30.23,SE,135,1.0,3.0,70,0.00,,,0.00,meteohub,2013-07-31 23:22:00,
2013-07-31 19:32:00,75.9,65.5,30.23,SE,135,1.0,4.0,70,0.00,,,0.00,meteohub,2013-07-31 23:32:00,
2013-07-31 19:42:00,73.9,65.8,30.23,SE,135,1.0,4.0,76,0.00,,,0.00,meteohub,2013-07-31 23:42:00,
2013-07-31 19:52:00,72.0,66.2,30.22,SE,135,2.0,2.0,82,0.00,,,0.00,meteohub,2013-07-31 23:52:00,
2013-07-31 20:02:00,71.1,68.0,30.22,SE,135,1.0,2.0,90,0.01,,,0.01,meteohub,2013-08-01 00:02:00,
2013-07-31 20:12:00,69.1,67.6,30.21,SE,135,2.0,2.0,95,0.02,,,0.02,meteohub,2013-08-01 00:12:00,
2013-07-31 20:22:00,69.1,68.2,30.20,SE,135,0.0,2.0,97,0.02,,,0.02,meteohub,2013-08-01 00:22:00,
2013-07-31 20:32:00,69.1,68.5,30.20,SE,135,1.0,2.0,98,0.02,,,0.02,meteohub,2013-08-01 00:32:00,
2013-07-31 20:42:00,69.1,68.5,30.20,SE,135,0.0,2.0,98,0.02,,,0.02,meteohub,2013-08-01 00:42:00,
2013-07-31 20:52:00,69.1,68.7,30.20,SE,135,0.0,2.0,99,0.03,,,0.03,meteohub,2013-08-01 00:52:00,
2013-07-31 21:02:00,69.1,68.7,30.20,SE,135,1.0,1.0,99,0.02,,,0.03,meteohub,2013-08-01 01:02:00,
2013-07-31 21:12:00,69.1,68.7,30.20,SE,135,0.0,2.0,99,0.03,,,0.05,meteohub,2013-08-01 01:12:00,
2013-07-31 21:22:00,69.1,68.7,30.20,SE,135,0.0,2.0,99,0.04,,,0.06,meteohub,2013-08-01 01:22:00,
2013-07-31 21:32:00,69.1,68.7,30.20,SE,135,0.0,2.0,99,0.04,,,0.06,meteohub,2013-08-01 01:32:00,
2013-07-31 21:42:00,69.1,68.7,30.20,SE,135,0.0,0.0,99,0.04,,,0.06,meteohub,2013-08-01 01:42:00,
2013-07-31 21:52:00,69.1,68.7,30.20,SE,135,0.0,2.0,99,0.03,,,0.06,meteohub,2013-08-01 01:52:00,
2013-07-31 22:02:00,69.1,68.7,30.21,SE,135,0.0,2.0,99,0.02,,,0.06,meteohub,2013-08-01 02:02:00,
2013-07-31 22:12:00,69.1,68.7,30.20,SE,135,1.0,2.0,99,0.01,,,0.06,meteohub,2013-08-01 02:12:00,
2013-07-31 22:22:00,69.1,68.7,30.20,SE,135,2.0,2.0,99,0.00,,,0.06,meteohub,2013-08-01 02:22:00,
2013-07-31 22:32:00,69.1,68.7,30.20,SE,135,1.0,2.0,99,0.00,,,0.06,meteohub,2013-08-01 02:32:00,
2013-07-31 22:42:00,69.1,68.7,30.20,South,180,2.0,2.0,99,0.00,,,0.06,meteohub,2013-08-01 02:42:00,
2013-07-31 22:52:00,69.1,68.7,30.20,SSW,202,1.0,2.0,99,0.00,,,0.06,meteohub,2013-08-01 02:52:00,
2013-07-31 23:02:00,69.1,68.7,30.20,SSW,202,0.0,2.0,99,0.00,,,0.06,meteohub,2013-08-01 03:02:00,
2013-07-31 23:12:00,69.1,68.7,30.20,South,180,1.0,2.0,99,0.00,,,0.06,meteohub,2013-08-01 03:12:00,
2013-07-31 23:22:00,68.0,67.6,30.20,West,270,1.0,5.0,99,0.00,,,0.06,meteohub,2013-08-01 03:22:00,
2013-07-31 23:32:00,68.0,67.6,30.19,South,180,1.0,2.0,99,0.00,,,0.06,meteohub,2013-08-01 03:32:00,
2013-07-31 23:42:00,68.0,67.6,30.19,West,270,0.0,2.0,99,0.00,,,0.06,meteohub,2013-08-01 03:42:00,
2013-07-31 23:52:00,68.0,67.6,30.19,SW,225,1.0,2.0,99,0.00,,,0.06,meteohub,2013-08-01 03:52:00,